TimeCST,TemperatureF,Dew PointF,Humidity,Sea Level PressureIn,VisibilityMPH,Wind Direction,Wind SpeedMPH,Gust SpeedMPH,PrecipitationIn,Events,Conditions,WindDirDegrees,DateUTC
12:15 AM,46.4,37.4,71,30.22,10.0,SSW,8.1,-,N/A,,Overcast,210,2013-01-09 06:15:00
12:35 AM,44.6,37.4,76,30.23,10.0,SSW,4.6,-,0.01,,Overcast,210,2013-01-09 06:35:00
12:55 AM,44.6,39.2,81,30.24,10.0,Calm,Calm,-,0.02,,Overcast,0,2013-01-09 06:55:00
1:15 AM,44.6,39.2,81,30.24,10.0,Calm,Calm,-,N/A,,Overcast,0,2013-01-09 07:15:00
1:35 AM,44.6,39.2,81,30.25,10.0,Calm,Calm,-,N/A,,Mostly Cloudy,0,2013-01-09 07:35:00
1:55 AM,44.6,39.2,81,30.26,7.0,Calm,Calm,-,0.01,,Overcast,0,2013-01-09 07:55:00
2:15 AM,44.6,39.2,81,30.26,6.0,Calm,Calm,-,N/A,,Mostly Cloudy,0,2013-01-09 08:15:00
2:35 AM,44.6,41.0,87,30.28,10.0,Calm,Calm,-,0.01,,Overcast,0,2013-01-09 08:35:00
2:55 AM,44.6,41.0,87,30.28,10.0,West,3.5,-,0.01,,Overcast,260,2013-01-09 08:55:00
3:15 AM,44.6,41.0,87,30.28,10.0,West,3.5,-,N/A,,Overcast,260,2013-01-09 09:15:00
3:35 AM,44.6,42.8,93,30.28,10.0,West,4.6,-,N/A,,Overcast,260,2013-01-09 09:35:00
3:55 AM,44.6,41.0,87,30.29,10.0,Calm,Calm,-,N/A,,Overcast,0,2013-01-09 09:55:00
4:15 AM,44.6,41.0,87,30.28,10.0,South,3.5,-,N/A,,Overcast,180,2013-01-09 10:15:00
4:35 AM,44.6,42.8,93,30.29,10.0,SSW,3.5,-,N/A,,Overcast,200,2013-01-09 10:35:00
4:55 AM,44.6,41.0,87,30.28,10.0,South,3.5,-,N/A,,Overcast,190,2013-01-09 10:55:00
5:15 AM,44.6,41.0,87,30.29,10.0,Calm,Calm,-,N/A,,Overcast,0,2013-01-09 11:15:00
5:35 AM,44.6,42.8,93,30.29,10.0,Calm,Calm,-,N/A,,Overcast,0,2013-01-09 11:35:00
5:55 AM,44.6,41.0,87,30.31,10.0,Calm,Calm,-,N/A,,Scattered Clouds,0,2013-01-09 11:55:00
6:15 AM,42.8,41.0,93,30.31,10.0,Calm,Calm,-,N/A,,Clear,0,2013-01-09 12:15:00
6:35 AM,42.8,41.0,93,30.32,9.0,Calm,Calm,-,N/A,,Partly Cloudy,0,2013-01-09 12:35:00
6:55 AM,42.8,39.2,87,30.34,5.0,NW,3.5,-,N/A,,Partly Cloudy,320,2013-01-09 12:55:00
7:15 AM,42.8,39.2,87,30.34,10.0,NW,5.8,-,N/A,,Partly Cloudy,320,2013-01-09 13:15:00
7:35 AM,44.6,41.0,87,30.35,10.0,NW,4.6,-,N/A,,Scattered Clouds,320,2013-01-09 13:35:00
7:55 AM,44.6,42.8,93,30.36,10.0,Calm,Calm,-,N/A,,Clear,0,2013-01-09 13:55:00
8:15 AM,39.2,37.4,93,30.38,4.0,Calm,Calm,-,N/A,,Clear,0,2013-01-09 14:15:00
8:35 AM,42.8,41.0,93,30.39,7.0,Calm,Calm,-,N/A,,Partly Cloudy,0,2013-01-09 14:35:00
8:55 AM,44.6,42.8,93,30.40,9.0,Calm,Calm,-,N/A,,Partly Cloudy,0,2013-01-09 14:55:00
9:15 AM,46.4,44.6,93,30.41,10.0,NW,4.6,-,N/A,,Partly Cloudy,310,2013-01-09 15:15:00
9:35 AM,48.2,42.8,82,30.41,10.0,NW,3.5,-,N/A,,Clear,310,2013-01-09 15:35:00
10:15 AM,50.0,41.0,71,30.42,10.0,Calm,Calm,-,N/A,,Clear,0,2013-01-09 16:15:00
10:35 AM,51.8,42.8,71,30.41,10.0,NNW,3.5,-,N/A,,Clear,330,2013-01-09 16:35:00
10:55 AM,51.8,42.8,71,30.41,10.0,NNW,4.6,-,N/A,,Clear,340,2013-01-09 16:55:00
11:15 AM,53.6,42.8,67,30.40,10.0,NE,5.8,-,N/A,,Clear,50,2013-01-09 17:15:00
11:55 AM,55.4,41.0,58,30.39,10.0,NE,4.6,-,N/A,,Clear,50,2013-01-09 17:55:00
12:15 PM,55.4,41.0,58,30.39,10.0,NNE,4.6,-,N/A,,Clear,30,2013-01-09 18:15:00
12:35 PM,55.4,41.0,58,30.39,10.0,NE,4.6,-,N/A,,Clear,50,2013-01-09 18:35:00
12:55 PM,57.2,39.2,51,30.39,10.0,NNE,5.8,-,N/A,,Clear,20,2013-01-09 18:55:00
1:15 PM,57.2,37.4,48,30.39,10.0,NNE,5.8,-,N/A,,Clear,20,2013-01-09 19:15:00
1:35 PM,57.2,37.4,48,30.39,10.0,NNE,6.9,-,N/A,,Clear,20,2013-01-09 19:35:00
1:55 PM,57.2,35.6,44,30.39,10.0,NE,6.9,-,N/A,,Clear,40,2013-01-09 19:55:00
2:15 PM,57.2,37.4,48,30.39,10.0,NNE,8.1,-,N/A,,Clear,30,2013-01-09 20:15:00
2:35 PM,57.2,37.4,48,30.40,10.0,NE,6.9,-,N/A,,Clear,40,2013-01-09 20:35:00
2:55 PM,57.2,37.4,48,30.40,10.0,ENE,6.9,-,N/A,,Clear,60,2013-01-09 20:55:00
3:15 PM,55.4,35.6,47,30.40,10.0,ENE,6.9,-,N/A,,Clear,60,2013-01-09 21:15:00
3:35 PM,55.4,35.6,47,30.41,10.0,ENE,6.9,-,N/A,,Clear,70,2013-01-09 21:35:00
3:55 PM,53.6,35.6,51,30.41,10.0,ENE,6.9,-,N/A,,Clear,60,2013-01-09 21:55:00
4:15 PM,53.6,35.6,51,30.42,10.0,NE,6.9,-,N/A,,Clear,50,2013-01-09 22:15:00
4:35 PM,51.8,37.4,58,30.42,10.0,NE,6.9,-,N/A,,Clear,50,2013-01-09 22:35:00
5:15 PM,50.0,37.4,62,30.42,10.0,ENE,6.9,-,N/A,,Clear,60,2013-01-09 23:15:00
5:35 PM,48.2,37.4,66,30.43,10.0,NE,6.9,-,N/A,,Clear,40,2013-01-09 23:35:00
5:55 PM,48.2,37.4,66,30.43,10.0,NE,5.8,-,N/A,,Clear,40,2013-01-09 23:55:00
6:15 PM,48.2,37.4,66,30.44,10.0,NE,5.8,-,N/A,,Clear,50,2013-01-10 00:15:00
6:35 PM,46.4,37.4,71,30.44,10.0,NE,5.8,-,N/A,,Clear,40,2013-01-10 00:35:00
6:55 PM,46.4,37.4,71,30.44,10.0,NE,6.9,-,N/A,,Clear,50,2013-01-10 00:55:00
7:15 PM,46.4,37.4,71,30.44,10.0,NE,8.1,-,N/A,,Clear,50,2013-01-10 01:15:00
7:35 PM,46.4,35.6,66,30.45,10.0,ENE,8.1,-,N/A,,Clear,60,2013-01-10 01:35:00
7:55 PM,44.6,35.6,71,30.45,10.0,ENE,5.8,-,N/A,,Clear,60,2013-01-10 01:55:00
8:35 PM,44.6,35.6,71,30.45,10.0,ENE,6.9,-,N/A,,Clear,60,2013-01-10 02:35:00
8:55 PM,46.4,35.6,66,30.45,10.0,ENE,6.9,-,N/A,,Clear,60,2013-01-10 02:55:00
9:15 PM,44.6,35.6,71,30.46,10.0,East,6.9,-,N/A,,Clear,90,2013-01-10 03:15:00
9:35 PM,44.6,35.6,71,30.46,10.0,ENE,5.8,-,N/A,,Clear,70,2013-01-10 03:35:00
9:55 PM,44.6,35.6,71,30.45,10.0,ENE,8.1,-,N/A,,Clear,60,2013-01-10 03:55:00
10:15 PM,46.4,35.6,66,30.45,10.0,NE,6.9,-,N/A,,Clear,50,2013-01-10 04:15:00
10:35 PM,44.6,35.6,71,30.45,10.0,ENE,8.1,-,N/A,,Clear,60,2013-01-10 04:35:00
10:55 PM,44.6,35.6,71,30.45,10.0,ENE,9.2,-,N/A,,Clear,70,2013-01-10 04:55:00
11:15 PM,44.6,33.8,66,30.45,10.0,East,6.9,-,N/A,,Clear,80,2013-01-10 05:15:00
11:35 PM,44.6,33.8,66,30.45,10.0,East,8.1,-,N/A,,Clear,80,2013-01-10 05:35:00
11:55 PM,44.6,33.8,66,30.45,10.0,ENE,8.1,-,N/A,,Partly Cloudy,70,2013-01-10 05:55:00